Year,Month,Day,Hour,Minute,Value (Times are PST for temperature in C)
2018,08,22,00,00,18.90
2018,08,22,00,01,18.90
2018,08,22,00,02,18.80
2018,08,22,00,03,18.80
2018,08,22,00,04,18.80
2018,08,22,00,05,18.70
2018,08,22,00,06,18.70
2018,08,22,00,07,18.70
2018,08,22,00,08,18.60
2018,08,22,00,09,18.60
2018,08,22,00,10,18.60
2018,08,22,00,11,18.50
2018,08,22,00,12,18.50
2018,08,22,00,13,18.40
2018,08,22,00,14,18.40
2018,08,22,00,15,18.30
2018,08,22,00,16,18.30
2018,08,22,00,17,18.30
2018,08,22,00,18,18.30
2018,08,22,00,19,18.20
2018,08,22,00,20,18.20
2018,08,22,00,21,18.20
2018,08,22,00,22,18.20
2018,08,22,00,23,18.20
2018,08,22,00,24,18.20
2018,08,22,00,25,18.20
2018,08,22,00,26,18.30
2018,08,22,00,27,18.30
2018,08,22,00,28,18.30
2018,08,22,00,29,18.30
2018,08,22,00,30,18.30
2018,08,22,00,31,18.30
2018,08,22,00,32,18.30
2018,08,22,00,33,18.30
2018,08,22,00,34,18.30
2018,08,22,00,35,18.30
2018,08,22,00,36,18.30
2018,08,22,00,37,18.30
2018,08,22,00,38,18.30
2018,08,22,00,39,18.20
2018,08,22,00,40,18.20
2018,08,22,00,41,18.20
2018,08,22,00,42,18.20
2018,08,22,00,43,18.20
2018,08,22,00,44,18.20
2018,08,22,00,45,18.20
2018,08,22,00,46,18.20
2018,08,22,00,47,18.20
2018,08,22,00,48,18.20
2018,08,22,00,49,18.20
2018,08,22,00,50,18.10
2018,08,22,00,51,18.10
2018,08,22,00,52,18.10
2018,08,22,00,53,18.20
2018,08,22,00,54,18.20
2018,08,22,00,55,18.20
2018,08,22,00,56,18.20
2018,08,22,00,57,18.20
2018,08,22,00,58,18.30
2018,08,22,00,59,18.30
2018,08,22,01,00,18.30
2018,08,22,01,01,18.30
2018,08,22,01,02,18.20
2018,08,22,01,03,18.20
2018,08,22,01,04,18.20
2018,08,22,01,05,18.20
2018,08,22,01,06,18.20
2018,08,22,01,07,18.20
2018,08,22,01,08,18.10
2018,08,22,01,09,18.10
2018,08,22,01,10,18.00
2018,08,22,01,11,17.90
2018,08,22,01,12,17.90
2018,08,22,01,13,17.90
2018,08,22,01,14,17.90
2018,08,22,01,15,17.80
2018,08,22,01,16,17.80
2018,08,22,01,17,17.80
2018,08,22,01,18,17.80
2018,08,22,01,19,17.80
2018,08,22,01,20,17.80
2018,08,22,01,21,17.80
2018,08,22,01,22,17.70
2018,08,22,01,23,17.70
2018,08,22,01,24,17.70
2018,08,22,01,25,17.60
2018,08,22,01,26,17.60
2018,08,22,01,27,17.50
2018,08,22,01,28,17.50
2018,08,22,01,29,17.40
2018,08,22,01,30,17.40
2018,08,22,01,31,17.30
2018,08,22,01,32,17.30
2018,08,22,01,33,17.30
2018,08,22,01,34,17.30
2018,08,22,01,35,17.30
2018,08,22,01,36,17.30
2018,08,22,01,37,17.20
2018,08,22,01,38,17.20
2018,08,22,01,39,17.20
2018,08,22,01,40,17.10
2018,08,22,01,41,17.10
2018,08,22,01,42,17.10
2018,08,22,01,43,17.00
2018,08,22,01,44,17.00
2018,08,22,01,45,17.00
2018,08,22,01,46,17.00
2018,08,22,01,47,17.00
2018,08,22,01,48,17.00
2018,08,22,01,49,16.90
2018,08,22,01,50,16.90
2018,08,22,01,51,16.90
2018,08,22,01,52,16.90
2018,08,22,01,53,16.90
2018,08,22,01,54,16.80
2018,08,22,01,55,16.80
2018,08,22,01,56,16.80
2018,08,22,01,57,16.80
2018,08,22,01,58,16.70
2018,08,22,01,59,16.70
2018,08,22,02,00,16.70
2018,08,22,02,01,16.70
2018,08,22,02,02,16.70
2018,08,22,02,03,16.70
2018,08,22,02,04,16.70
2018,08,22,02,05,16.60
2018,08,22,02,06,16.60
2018,08,22,02,07,16.60
2018,08,22,02,08,16.60
2018,08,22,02,09,16.50
2018,08,22,02,10,16.40
2018,08,22,02,11,16.40
2018,08,22,02,12,16.40
2018,08,22,02,13,16.40
2018,08,22,02,14,16.40
2018,08,22,02,15,16.40
2018,08,22,02,16,16.40
2018,08,22,02,17,16.40
2018,08,22,02,18,16.40
2018,08,22,02,19,16.30
2018,08,22,02,20,16.30
2018,08,22,02,21,16.30
2018,08,22,02,22,16.30
2018,08,22,02,23,16.20
2018,08,22,02,24,16.20
2018,08,22,02,25,16.20
2018,08,22,02,26,16.20
2018,08,22,02,27,16.20
2018,08,22,02,28,16.10
2018,08,22,02,29,16.10
2018,08,22,02,30,16.10
2018,08,22,02,31,16.10
2018,08,22,02,32,16.10
2018,08,22,02,33,16.10
2018,08,22,02,34,16.10
2018,08,22,02,35,16.10
2018,08,22,02,36,16.10
2018,08,22,02,37,16.00
2018,08,22,02,38,15.90
2018,08,22,02,39,15.90
2018,08,22,02,40,15.90
2018,08,22,02,41,15.90
2018,08,22,02,42,15.80
2018,08,22,02,43,15.80
2018,08,22,02,44,15.80
2018,08,22,02,45,15.80
2018,08,22,02,46,15.80
2018,08,22,02,47,15.80
2018,08,22,02,48,15.80
2018,08,22,02,49,15.80
2018,08,22,02,50,15.80
2018,08,22,02,51,15.70
2018,08,22,02,52,15.70
2018,08,22,02,53,15.70
2018,08,22,02,54,15.70
2018,08,22,02,55,15.70
2018,08,22,02,56,15.60
2018,08,22,02,57,15.60
2018,08,22,02,58,15.60
2018,08,22,02,59,15.60
2018,08,22,03,00,15.60
2018,08,22,03,01,15.60
2018,08,22,03,02,15.60
2018,08,22,03,03,15.60
2018,08,22,03,04,15.60
2018,08,22,03,05,15.70
2018,08,22,03,06,15.70
2018,08,22,03,07,15.70
2018,08,22,03,08,15.70
2018,08,22,03,09,15.70
2018,08,22,03,10,15.70
2018,08,22,03,11,15.70
2018,08,22,03,12,15.60
2018,08,22,03,13,15.60
2018,08,22,03,14,15.60
2018,08,22,03,15,15.60
2018,08,22,03,16,15.60
2018,08,22,03,17,15.60
2018,08,22,03,18,15.50
2018,08,22,03,19,15.50
2018,08,22,03,20,15.50
2018,08,22,03,21,15.50
2018,08,22,03,22,15.50
2018,08,22,03,23,15.50
2018,08,22,03,24,15.50
2018,08,22,03,25,15.40
2018,08,22,03,26,15.40
2018,08,22,03,27,15.40
2018,08,22,03,28,15.40
2018,08,22,03,29,15.40
2018,08,22,03,30,15.40
2018,08,22,03,31,15.40
2018,08,22,03,32,15.40
2018,08,22,03,33,15.30
2018,08,22,03,34,15.30
2018,08,22,03,35,15.30
2018,08,22,03,36,15.30
2018,08,22,03,37,15.30
2018,08,22,03,38,15.30
2018,08,22,03,39,15.30
2018,08,22,03,40,15.30
2018,08,22,03,41,15.30
2018,08,22,03,42,15.20
2018,08,22,03,43,15.20
2018,08,22,03,44,15.20
2018,08,22,03,45,15.20
2018,08,22,03,46,15.10
2018,08,22,03,47,15.10
2018,08,22,03,48,15.10
2018,08,22,03,49,15.10
2018,08,22,03,50,15.00
2018,08,22,03,51,15.00
2018,08,22,03,52,15.00
2018,08,22,03,53,15.00
2018,08,22,03,54,15.00
2018,08,22,03,55,15.00
2018,08,22,03,56,15.00
2018,08,22,03,57,15.00
2018,08,22,03,58,15.00
2018,08,22,03,59,15.00
2018,08,22,04,00,15.00
2018,08,22,04,01,14.90
2018,08,22,04,02,14.90
2018,08,22,04,03,14.90
2018,08,22,04,04,14.90
2018,08,22,04,05,14.90
2018,08,22,04,06,14.90
2018,08,22,04,07,14.90
2018,08,22,04,08,14.90
2018,08,22,04,09,14.80
2018,08,22,04,10,14.80
2018,08,22,04,11,14.80
2018,08,22,04,12,14.80
2018,08,22,04,13,14.80
2018,08,22,04,14,14.80
2018,08,22,04,15,14.80
2018,08,22,04,16,14.80
2018,08,22,04,17,14.80
2018,08,22,04,18,14.70
2018,08,22,04,19,14.70
2018,08,22,04,20,14.70
2018,08,22,04,21,14.70
2018,08,22,04,22,14.60
2018,08,22,04,23,14.60
2018,08,22,04,24,14.60
2018,08,22,04,25,14.60
2018,08,22,04,26,14.50
2018,08,22,04,27,14.50
2018,08,22,04,28,14.50
2018,08,22,04,29,14.50
2018,08,22,04,30,14.50
2018,08,22,04,31,14.50
2018,08,22,04,32,14.40
2018,08,22,04,33,14.40
2018,08,22,04,34,14.40
2018,08,22,04,35,14.40
2018,08,22,04,36,14.40
2018,08,22,04,37,14.30
2018,08,22,04,38,14.30
2018,08,22,04,39,14.30
2018,08,22,04,40,14.30
2018,08,22,04,41,14.30
2018,08,22,04,42,14.30
2018,08,22,04,43,14.30
2018,08,22,04,44,14.30
2018,08,22,04,45,14.30
2018,08,22,04,46,14.30
2018,08,22,04,47,14.30
2018,08,22,04,48,14.30
2018,08,22,04,49,14.20
2018,08,22,04,50,14.20
2018,08,22,04,51,14.20
2018,08,22,04,52,14.20
2018,08,22,04,53,14.20
2018,08,22,04,54,14.20
2018,08,22,04,55,14.20
2018,08,22,04,56,14.20
2018,08,22,04,57,14.20
2018,08,22,04,58,14.20
2018,08,22,04,59,14.20
2018,08,22,05,00,14.20
2018,08,22,05,01,14.20
2018,08,22,05,02,14.10
2018,08,22,05,03,14.10
2018,08,22,05,04,14.10
2018,08,22,05,05,14.10
2018,08,22,05,06,14.10
2018,08,22,05,07,14.10
2018,08,22,05,08,14.00
2018,08,22,05,09,14.00
2018,08,22,05,10,14.00
2018,08,22,05,11,14.00
2018,08,22,05,12,14.00
2018,08,22,05,13,14.00
2018,08,22,05,14,14.00
2018,08,22,05,15,14.00
2018,08,22,05,16,14.00
2018,08,22,05,17,14.00
2018,08,22,05,18,14.00
2018,08,22,05,19,13.90
2018,08,22,05,20,13.90
2018,08,22,05,21,13.90
2018,08,22,05,22,13.90
2018,08,22,05,23,13.90
2018,08,22,05,24,13.90
2018,08,22,05,25,13.90
2018,08,22,05,26,13.90
2018,08,22,05,27,13.90
2018,08,22,05,28,13.90
2018,08,22,05,29,13.90
2018,08,22,05,30,13.90
2018,08,22,05,31,13.90
2018,08,22,05,32,13.80
2018,08,22,05,33,13.80
2018,08,22,05,34,13.80
2018,08,22,05,35,13.80
2018,08,22,05,36,13.80
2018,08,22,05,37,13.70
2018,08,22,05,38,13.70
2018,08,22,05,39,13.70
2018,08,22,05,40,13.70
2018,08,22,05,41,13.70
2018,08,22,05,42,13.70
2018,08,22,05,43,13.70
2018,08,22,05,44,13.70
2018,08,22,05,45,13.70
2018,08,22,05,46,13.70
2018,08,22,05,47,13.70
2018,08,22,05,48,13.70
2018,08,22,05,49,13.60
2018,08,22,05,50,13.60
2018,08,22,05,51,13.60
2018,08,22,05,52,13.60
2018,08,22,05,53,13.60
2018,08,22,05,54,13.60
2018,08,22,05,55,13.60
2018,08,22,05,56,13.60
2018,08,22,05,57,13.60
2018,08,22,05,58,13.60
2018,08,22,05,59,13.60
2018,08,22,06,00,13.60
2018,08,22,06,01,13.60
2018,08,22,06,02,13.60
2018,08,22,06,03,13.60
2018,08,22,06,04,13.60
2018,08,22,06,05,13.60
2018,08,22,06,06,13.60
2018,08,22,06,07,13.60
2018,08,22,06,08,13.50
2018,08,22,06,09,13.50
2018,08,22,06,10,13.50
2018,08,22,06,11,13.50
2018,08,22,06,12,13.50
2018,08,22,06,13,13.50
2018,08,22,06,14,13.50
2018,08,22,06,15,13.50
2018,08,22,06,16,13.50
2018,08,22,06,17,13.40
2018,08,22,06,18,13.40
2018,08,22,06,19,13.40
2018,08,22,06,20,13.40
2018,08,22,06,21,13.40
2018,08,22,06,22,13.40
2018,08,22,06,23,13.40
2018,08,22,06,24,13.40
2018,08,22,06,25,13.30
2018,08,22,06,26,13.30
2018,08,22,06,27,13.30
2018,08,22,06,28,13.30
2018,08,22,06,29,13.30
2018,08,22,06,30,13.30
2018,08,22,06,31,13.30
2018,08,22,06,32,13.30
2018,08,22,06,33,13.30
2018,08,22,06,34,13.30
2018,08,22,06,35,13.30
2018,08,22,06,36,13.30
2018,08,22,06,37,13.30
2018,08,22,06,38,13.30
2018,08,22,06,39,13.20
2018,08,22,06,40,13.20
2018,08,22,06,41,13.20
2018,08,22,06,42,13.20
2018,08,22,06,43,13.20
2018,08,22,06,44,13.20
2018,08,22,06,45,13.20
2018,08,22,06,46,13.20
2018,08,22,06,47,13.20
2018,08,22,06,48,13.20
2018,08,22,06,49,13.20
2018,08,22,06,50,13.20
2018,08,22,06,51,13.30
2018,08,22,06,52,13.30
2018,08,22,06,53,13.30
2018,08,22,06,54,13.30
2018,08,22,06,55,13.30
2018,08,22,06,56,13.30
2018,08,22,06,57,13.30
2018,08,22,06,58,13.40
2018,08,22,06,59,13.40
2018,08,22,07,00,13.40
2018,08,22,07,01,13.50
2018,08,22,07,02,13.50
2018,08,22,07,03,13.50
2018,08,22,07,04,13.60
2018,08,22,07,05,13.60
2018,08,22,07,06,13.60
2018,08,22,07,07,13.60
2018,08,22,07,08,13.60
2018,08,22,07,09,13.60
2018,08,22,07,10,13.70
2018,08,22,07,11,13.70
2018,08,22,07,12,13.70
2018,08,22,07,13,13.70
2018,08,22,07,14,13.70
2018,08,22,07,15,13.80
2018,08,22,07,16,13.80
2018,08,22,07,17,13.90
2018,08,22,07,18,13.90
2018,08,22,07,19,13.90
2018,08,22,07,20,14.00
2018,08,22,07,21,14.00
2018,08,22,07,22,14.00
2018,08,22,07,23,14.10
2018,08,22,07,24,14.10
2018,08,22,07,25,14.10
2018,08,22,07,26,14.20
2018,08,22,07,27,14.20
2018,08,22,07,28,14.20
2018,08,22,07,29,14.20
2018,08,22,07,30,14.30
2018,08,22,07,31,14.30
2018,08,22,07,32,14.30
2018,08,22,07,33,14.40
2018,08,22,07,34,14.40
2018,08,22,07,35,14.40
2018,08,22,07,36,14.50
2018,08,22,07,37,14.50
2018,08,22,07,38,14.60
2018,08,22,07,39,14.60
2018,08,22,07,40,14.70
2018,08,22,07,41,14.70
2018,08,22,07,42,14.80
2018,08,22,07,43,14.80
2018,08,22,07,44,14.80
2018,08,22,07,45,14.90
2018,08,22,07,46,14.90
2018,08,22,07,47,15.00
2018,08,22,07,48,15.00
2018,08,22,07,49,15.10
2018,08,22,07,50,15.10
2018,08,22,07,51,15.20
2018,08,22,07,52,15.30
2018,08,22,07,53,15.30
2018,08,22,07,54,15.30
2018,08,22,07,55,15.40
2018,08,22,07,56,15.40
2018,08,22,07,57,15.50
2018,08,22,07,58,15.50
2018,08,22,07,59,15.60
2018,08,22,08,00,15.70
2018,08,22,08,01,15.70
2018,08,22,08,02,15.80
2018,08,22,08,03,15.80
2018,08,22,08,04,15.90
2018,08,22,08,05,16.10
2018,08,22,08,06,16.10
2018,08,22,08,07,16.20
2018,08,22,08,08,16.20
2018,08,22,08,09,16.30
2018,08,22,08,10,16.30
2018,08,22,08,11,16.40
2018,08,22,08,12,16.40
2018,08,22,08,13,16.40
2018,08,22,08,14,16.50
2018,08,22,08,15,16.60
2018,08,22,08,16,16.70
2018,08,22,08,17,16.70
2018,08,22,08,18,16.70
2018,08,22,08,19,16.80
2018,08,22,08,20,16.90
2018,08,22,08,21,16.90
2018,08,22,08,22,17.00
2018,08,22,08,23,17.00
2018,08,22,08,24,17.10
2018,08,22,08,25,17.10
2018,08,22,08,26,17.20
2018,08,22,08,27,17.30
2018,08,22,08,28,17.30
2018,08,22,08,29,17.40
2018,08,22,08,30,17.40
2018,08,22,08,31,17.50
2018,08,22,08,32,17.60
2018,08,22,08,33,17.70
2018,08,22,08,34,17.80
2018,08,22,08,35,17.90
2018,08,22,08,36,18.00
2018,08,22,08,37,18.10
2018,08,22,08,38,18.20
2018,08,22,08,39,18.30
2018,08,22,08,40,18.40
2018,08,22,08,41,18.50
2018,08,22,08,42,18.60
2018,08,22,08,43,18.60
2018,08,22,08,44,18.70
2018,08,22,08,45,18.80
2018,08,22,08,46,18.90
2018,08,22,08,47,18.90
2018,08,22,08,48,19.10
2018,08,22,08,49,19.10
2018,08,22,08,50,19.20
2018,08,22,08,51,19.30
2018,08,22,08,52,19.40
2018,08,22,08,53,19.50
2018,08,22,08,54,19.60
2018,08,22,08,55,19.70
2018,08,22,08,56,19.80
2018,08,22,08,57,19.90
2018,08,22,08,58,19.90
2018,08,22,08,59,20.10
2018,08,22,09,00,20.20
2018,08,22,09,01,20.30
2018,08,22,09,02,20.40
2018,08,22,09,03,20.60
2018,08,22,09,04,20.70
2018,08,22,09,05,20.80
2018,08,22,09,06,20.90
2018,08,22,09,07,21.00
2018,08,22,09,08,21.10
2018,08,22,09,09,21.20
2018,08,22,09,10,21.30
2018,08,22,09,11,21.30
2018,08,22,09,12,21.40
2018,08,22,09,13,21.40
2018,08,22,09,14,21.60
2018,08,22,09,15,21.60
2018,08,22,09,16,21.60
2018,08,22,09,17,21.60
2018,08,22,09,18,21.40
2018,08,22,09,19,21.40
2018,08,22,09,20,21.40
2018,08,22,09,21,21.30
2018,08,22,09,22,21.30
2018,08,22,09,23,21.30
2018,08,22,09,24,21.20
2018,08,22,09,25,21.10
2018,08,22,09,26,21.00
2018,08,22,09,27,21.00
2018,08,22,09,28,21.00
2018,08,22,09,29,20.90
2018,08,22,09,30,20.90
2018,08,22,09,31,20.90
2018,08,22,09,32,21.00
2018,08,22,09,33,21.00
2018,08,22,09,34,21.10
2018,08,22,09,35,21.20
2018,08,22,09,36,21.30
2018,08,22,09,37,21.30
2018,08,22,09,38,21.40
2018,08,22,09,39,21.60
2018,08,22,09,40,21.60
2018,08,22,09,41,21.60
2018,08,22,09,42,21.70
2018,08,22,09,43,21.80
2018,08,22,09,44,21.90
2018,08,22,09,45,21.90
2018,08,22,09,46,22.00
2018,08,22,09,47,22.00
2018,08,22,09,48,22.00
2018,08,22,09,49,22.10
2018,08,22,09,50,22.20
2018,08,22,09,51,22.20
2018,08,22,09,52,22.30
2018,08,22,09,53,22.30
2018,08,22,09,54,22.40
2018,08,22,09,55,22.40
2018,08,22,09,56,22.40
2018,08,22,09,57,22.50
2018,08,22,09,58,22.50
2018,08,22,09,59,22.60
2018,08,22,10,00,22.60
2018,08,22,10,01,22.60
2018,08,22,10,02,22.60
2018,08,22,10,03,22.60
2018,08,22,10,04,22.50
2018,08,22,10,05,22.50
2018,08,22,10,06,22.50
2018,08,22,10,07,22.50
2018,08,22,10,08,22.50
2018,08,22,10,09,22.50
2018,08,22,10,10,22.60
2018,08,22,10,11,22.60
2018,08,22,10,12,22.60
2018,08,22,10,13,22.70
2018,08,22,10,14,22.70
2018,08,22,10,15,22.80
2018,08,22,10,16,22.80
2018,08,22,10,17,22.90
2018,08,22,10,18,22.90
2018,08,22,10,19,22.90
2018,08,22,10,20,22.90
2018,08,22,10,21,22.90
2018,08,22,10,22,22.90
2018,08,22,10,23,23.10
2018,08,22,10,24,23.10
2018,08,22,10,25,23.00
2018,08,22,10,26,22.90
2018,08,22,10,27,22.90
2018,08,22,10,28,22.90
2018,08,22,10,29,22.90
2018,08,22,10,30,22.90
2018,08,22,10,31,22.90
2018,08,22,10,32,22.90
2018,08,22,10,33,22.90
2018,08,22,10,34,22.90
2018,08,22,10,35,23.00
2018,08,22,10,36,23.10
2018,08,22,10,37,23.10
2018,08,22,10,38,23.10
2018,08,22,10,39,23.10
2018,08,22,10,40,23.10
2018,08,22,10,41,23.10
2018,08,22,10,42,23.00
2018,08,22,10,43,22.90
2018,08,22,10,44,22.90
2018,08,22,10,45,22.80
2018,08,22,10,46,22.80
2018,08,22,10,47,22.80
2018,08,22,10,48,22.70
2018,08,22,10,49,22.80
2018,08,22,10,50,22.80
2018,08,22,10,51,22.80
2018,08,22,10,52,22.90
2018,08,22,10,53,22.90
2018,08,22,10,54,22.90
2018,08,22,10,55,22.90
2018,08,22,10,56,22.80
2018,08,22,10,57,22.70
2018,08,22,10,58,22.60
2018,08,22,10,59,22.60
2018,08,22,11,00,22.50
2018,08,22,11,01,22.50
2018,08,22,11,02,22.50
2018,08,22,11,03,22.50
2018,08,22,11,04,22.50
2018,08,22,11,05,22.60
2018,08,22,11,06,22.60
2018,08,22,11,07,22.60
2018,08,22,11,08,22.50
2018,08,22,11,09,22.40
2018,08,22,11,10,22.40
2018,08,22,11,11,22.50
2018,08,22,11,12,22.50
2018,08,22,11,13,22.60
2018,08,22,11,14,22.70
2018,08,22,11,15,22.80
2018,08,22,11,16,22.80
2018,08,22,11,17,22.90
2018,08,22,11,18,22.90
2018,08,22,11,19,23.00
2018,08,22,11,20,23.10
2018,08,22,11,21,23.20
2018,08,22,11,22,23.30
2018,08,22,11,23,23.30
2018,08,22,11,24,23.30
2018,08,22,11,25,23.30
2018,08,22,11,26,23.30
2018,08,22,11,27,23.30
2018,08,22,11,28,23.30
2018,08,22,11,29,23.30
2018,08,22,11,30,23.20
2018,08,22,11,31,23.20
2018,08,22,11,32,23.10
2018,08,22,11,33,22.90
2018,08,22,11,34,22.90
2018,08,22,11,35,22.90
2018,08,22,11,36,22.80
2018,08,22,11,37,22.80
2018,08,22,11,38,22.70
2018,08,22,11,39,22.70
2018,08,22,11,40,22.70
2018,08,22,11,41,22.70
2018,08,22,11,42,22.80
2018,08,22,11,43,22.80
2018,08,22,11,44,22.90
2018,08,22,11,45,22.90
2018,08,22,11,46,22.90
2018,08,22,11,47,23.00
2018,08,22,11,48,23.00
2018,08,22,11,49,22.90
2018,08,22,11,50,22.90
2018,08,22,11,51,22.90
2018,08,22,11,52,22.90
2018,08,22,11,53,22.90
2018,08,22,11,54,22.90
2018,08,22,11,55,22.80
2018,08,22,11,56,22.80
2018,08,22,11,57,22.80
2018,08,22,11,58,22.70
2018,08,22,11,59,22.70
2018,08,22,12,00,22.60
2018,08,22,12,01,22.60
2018,08,22,12,02,22.60
2018,08,22,12,03,22.70
2018,08,22,12,04,22.80
2018,08,22,12,05,22.80
2018,08,22,12,06,22.60
2018,08,22,12,07,22.60
2018,08,22,12,08,22.60
2018,08,22,12,09,22.60
2018,08,22,12,10,22.60
2018,08,22,12,11,22.70
2018,08,22,12,12,22.70
2018,08,22,12,13,22.80
2018,08,22,12,14,22.80
2018,08,22,12,15,22.80
2018,08,22,12,16,22.90
2018,08,22,12,17,22.90
2018,08,22,12,18,23.10
2018,08,22,12,19,23.10
2018,08,22,12,20,23.10
2018,08,22,12,21,23.20
2018,08,22,12,22,23.20
2018,08,22,12,23,23.30
2018,08,22,12,24,23.30
2018,08,22,12,25,23.30
2018,08,22,12,26,23.30
2018,08,22,12,27,23.30
2018,08,22,12,28,23.30
2018,08,22,12,29,23.30
2018,08,22,12,30,23.20
2018,08,22,12,31,23.10
2018,08,22,12,32,23.10
2018,08,22,12,33,22.90
2018,08,22,12,34,22.90
2018,08,22,12,35,22.90
2018,08,22,12,36,22.80
2018,08,22,12,37,22.70
2018,08,22,12,38,22.70
2018,08,22,12,39,22.80
2018,08,22,12,40,22.90
2018,08,22,12,41,22.90
2018,08,22,12,42,22.90
2018,08,22,12,43,22.90
2018,08,22,12,44,22.80
2018,08,22,12,45,22.80
2018,08,22,12,46,22.80
2018,08,22,12,47,22.80
2018,08,22,12,48,22.90
2018,08,22,12,49,22.90
2018,08,22,12,50,22.90
2018,08,22,12,51,23.00
2018,08,22,12,52,23.10
2018,08,22,12,53,23.30
2018,08,22,12,54,23.30
2018,08,22,12,55,23.30
2018,08,22,12,56,23.30
2018,08,22,12,57,23.20
2018,08,22,12,58,23.20
2018,08,22,12,59,23.20
2018,08,22,13,00,23.20
2018,08,22,13,01,23.30
2018,08,22,13,02,23.30
2018,08,22,13,03,23.50
2018,08,22,13,04,23.60
2018,08,22,13,05,23.70
2018,08,22,13,06,23.70
2018,08,22,13,07,23.70
2018,08,22,13,08,23.70
2018,08,22,13,09,23.70
2018,08,22,13,10,23.70
2018,08,22,13,11,23.70
2018,08,22,13,12,23.90
2018,08,22,13,13,24.00
2018,08,22,13,14,24.10
2018,08,22,13,15,24.10
2018,08,22,13,16,24.10
2018,08,22,13,17,24.10
2018,08,22,13,18,24.10
2018,08,22,13,19,24.10
2018,08,22,13,20,24.10
2018,08,22,13,21,24.10
2018,08,22,13,22,24.10
2018,08,22,13,23,24.00
2018,08,22,13,24,23.80
2018,08,22,13,25,23.60
2018,08,22,13,26,23.60
2018,08,22,13,27,23.40
2018,08,22,13,28,23.40
2018,08,22,13,29,23.50
2018,08,22,13,30,23.70
2018,08,22,13,31,23.80
2018,08,22,13,32,23.90
2018,08,22,13,33,24.10
2018,08,22,13,34,24.30
2018,08,22,13,35,24.30
2018,08,22,13,36,24.30
2018,08,22,13,37,24.30
2018,08,22,13,38,24.30
2018,08,22,13,39,24.10
2018,08,22,13,40,24.00
2018,08,22,13,41,23.90
2018,08,22,13,42,23.90
2018,08,22,13,43,23.90
2018,08,22,13,44,23.80
2018,08,22,13,45,23.70
2018,08,22,13,46,23.60
2018,08,22,13,47,23.60
2018,08,22,13,48,23.60
2018,08,22,13,49,23.60
2018,08,22,13,50,23.70
2018,08,22,13,51,23.80
2018,08,22,13,52,23.90
2018,08,22,13,53,23.90
2018,08,22,13,54,24.00
2018,08,22,13,55,24.10
2018,08,22,13,56,24.10
2018,08,22,13,57,24.10
2018,08,22,13,58,24.00
2018,08,22,13,59,23.90
2018,08,22,14,00,23.90
2018,08,22,14,01,23.80
2018,08,22,14,02,23.90
2018,08,22,14,03,23.90
2018,08,22,14,04,23.90
2018,08,22,14,05,23.90
2018,08,22,14,06,23.90
2018,08,22,14,07,23.90
2018,08,22,14,08,23.90
2018,08,22,14,09,24.00
2018,08,22,14,10,24.10
2018,08,22,14,11,24.10
2018,08,22,14,12,24.20
2018,08,22,14,13,24.40
2018,08,22,14,14,24.40
2018,08,22,14,15,24.40
2018,08,22,14,16,24.40
2018,08,22,14,17,24.40
2018,08,22,14,18,24.40
2018,08,22,14,19,24.40
2018,08,22,14,20,24.30
2018,08,22,14,21,24.20
2018,08,22,14,22,24.30
2018,08,22,14,23,24.20
2018,08,22,14,24,24.20
2018,08,22,14,25,24.30
2018,08,22,14,26,24.40
2018,08,22,14,27,24.40
2018,08,22,14,28,24.50
2018,08,22,14,29,24.60
2018,08,22,14,30,24.70
2018,08,22,14,31,24.70
2018,08,22,14,32,24.70
2018,08,22,14,33,24.70
2018,08,22,14,34,24.50
2018,08,22,14,35,24.50
2018,08,22,14,36,24.50
2018,08,22,14,37,24.40
2018,08,22,14,38,24.40
2018,08,22,14,39,24.40
2018,08,22,14,40,24.30
2018,08,22,14,41,24.30
2018,08,22,14,42,24.30
2018,08,22,14,43,24.20
2018,08,22,14,44,24.20
2018,08,22,14,45,24.30
2018,08,22,14,46,24.30
2018,08,22,14,47,24.40
2018,08,22,14,48,24.50
2018,08,22,14,49,24.60
2018,08,22,14,50,24.70
2018,08,22,14,51,24.80
2018,08,22,14,52,25.00
2018,08,22,14,53,25.10
2018,08,22,14,54,25.20
2018,08,22,14,55,25.20
2018,08,22,14,56,25.10
2018,08,22,14,57,25.10
2018,08,22,14,58,25.10
2018,08,22,14,59,25.10
2018,08,22,15,00,25.10
2018,08,22,15,01,25.10
2018,08,22,15,02,25.20
2018,08,22,15,03,25.30
2018,08,22,15,04,25.40
2018,08,22,15,05,25.50
2018,08,22,15,06,25.50
2018,08,22,15,07,25.60
2018,08,22,15,08,25.60
2018,08,22,15,09,25.70
2018,08,22,15,10,25.70
2018,08,22,15,11,25.70
2018,08,22,15,12,25.70
2018,08,22,15,13,25.80
2018,08,22,15,14,25.80
2018,08,22,15,15,25.80
2018,08,22,15,16,25.80
2018,08,22,15,17,25.70
2018,08,22,15,18,25.70
2018,08,22,15,19,25.70
2018,08,22,15,20,25.80
2018,08,22,15,21,25.90
2018,08,22,15,22,25.90
2018,08,22,15,23,26.00
2018,08,22,15,24,26.10
2018,08,22,15,25,26.00
2018,08,22,15,26,25.90
2018,08,22,15,27,25.90
2018,08,22,15,28,25.80
2018,08,22,15,29,25.90
2018,08,22,15,30,26.00
2018,08,22,15,31,26.00
2018,08,22,15,32,26.10
2018,08,22,15,33,26.20
2018,08,22,15,34,26.20
2018,08,22,15,35,26.10
2018,08,22,15,36,26.10
2018,08,22,15,37,26.00
2018,08,22,15,38,25.90
2018,08,22,15,39,25.90
2018,08,22,15,40,25.90
2018,08,22,15,41,26.00
2018,08,22,15,42,26.10
2018,08,22,15,43,26.00
2018,08,22,15,44,25.90
2018,08,22,15,45,26.00
2018,08,22,15,46,25.90
2018,08,22,15,47,25.90
2018,08,22,15,48,25.90
2018,08,22,15,49,25.90
2018,08,22,15,50,25.90
2018,08,22,15,51,26.00
2018,08,22,15,52,26.00
2018,08,22,15,53,26.10
2018,08,22,15,54,26.10
2018,08,22,15,55,26.10
2018,08,22,15,56,26.10
2018,08,22,15,57,25.90
2018,08,22,15,58,25.90
2018,08,22,15,59,25.80
2018,08,22,16,00,25.80
2018,08,22,16,01,25.80
2018,08,22,16,02,25.80
2018,08,22,16,03,25.80
2018,08,22,16,04,25.80
2018,08,22,16,05,25.80
2018,08,22,16,06,25.80
2018,08,22,16,07,25.90
2018,08,22,16,08,25.90
2018,08,22,16,09,26.00
2018,08,22,16,10,26.10
2018,08,22,16,11,26.20
2018,08,22,16,12,26.20
2018,08,22,16,13,26.30
2018,08,22,16,14,26.40
2018,08,22,16,15,26.50
2018,08,22,16,16,26.50
2018,08,22,16,17,26.40
2018,08,22,16,18,26.50
2018,08,22,16,19,26.60
2018,08,22,16,20,26.60
2018,08,22,16,21,26.60
2018,08,22,16,22,26.60
2018,08,22,16,23,26.60
2018,08,22,16,24,26.60
2018,08,22,16,25,26.60
2018,08,22,16,26,26.60
2018,08,22,16,27,26.60
2018,08,22,16,28,26.60
2018,08,22,16,29,26.60
2018,08,22,16,30,26.60
2018,08,22,16,31,26.60
2018,08,22,16,32,26.60
2018,08,22,16,33,26.60
2018,08,22,16,34,26.60
2018,08,22,16,35,26.60
2018,08,22,16,36,26.60
2018,08,22,16,37,26.60
2018,08,22,16,38,26.60
2018,08,22,16,39,26.60
2018,08,22,16,40,26.50
2018,08,22,16,41,26.40
2018,08,22,16,42,26.40
2018,08,22,16,43,26.30
2018,08,22,16,44,26.20
2018,08,22,16,45,26.30
2018,08,22,16,46,26.30
2018,08,22,16,47,26.30
2018,08,22,16,48,26.30
2018,08,22,16,49,26.30
2018,08,22,16,50,26.30
2018,08,22,16,51,26.30
2018,08,22,16,52,26.30
2018,08,22,16,53,26.30
2018,08,22,16,54,26.20
2018,08,22,16,55,26.20
2018,08,22,16,56,26.30
2018,08,22,16,57,26.30
2018,08,22,16,58,26.30
2018,08,22,16,59,26.40
2018,08,22,17,00,26.40
2018,08,22,17,01,26.40
2018,08,22,17,02,26.40
2018,08,22,17,03,26.40
2018,08,22,17,04,26.40
2018,08,22,17,05,26.30
2018,08,22,17,06,26.40
2018,08,22,17,07,26.40
2018,08,22,17,08,26.40
2018,08,22,17,09,26.40
2018,08,22,17,10,26.40
2018,08,22,17,11,26.40
2018,08,22,17,12,26.40
2018,08,22,17,13,26.40
2018,08,22,17,14,26.40
2018,08,22,17,15,26.30
2018,08,22,17,16,26.40
2018,08,22,17,17,26.40
2018,08,22,17,18,26.40
2018,08,22,17,19,26.40